Regional Weather Roundup
Issued by NWS

Home | Current Version | Previous Version | Text Only | Print | Product List | Glossary On
Versions: 1 2 3 4 5 6 7 8 9 10 11 12 13 14 15 16 17 18 19 20 21 22 23 24 25 26 27 28 29 30 31 32 33 34 35 36 37 38 39 40 41 42 43 44 45 46 47 48 49 50
000
ASUS43 KLMK 191310
RWRKY
KENTUCKY REGIONAL WEATHER ROUNDUP
NATIONAL WEATHER SERVICE LOUISVILLE KY
800 AM EST SUN FEB 19 2017

NOTE "FAIR" INDICATES FEW OR NO CLOUDS BELOW 12,000 FEET
WITH NO SIGNIFICANT WEATHER AND/OR OBSTRUCTIONS TO VISIBILITY.

KYZ001>023-026-027-061>063-070>075-191400-
WESTERN AND SOUTH CENTRAL KENTUCKY

CITY           SKY/WX    TMP DP  RH WIND       PRES   REMARKS
PADUCAH        FOG       45  43  93 CALM      30.06R VSB<1/4
HENDERSON      CLOUDY    48  45  87 CALM      30.06R VSB 1/2
OWENSBORO      FOG       48  48 100 CALM      30.07R VSB 1/2
HOPKINSVILLE   FOG       45  45 100 CALM      30.06R VSB 1/4
BOWLING GREEN  CLOUDY    48  46  93 CALM      30.08R FOG
GLASGOW        CLOUDY   N/A N/A N/A CALM      30.08R HAZE
$$

KYZ024-025-028>034-038-045-046-053-191400-
NORTH CENTRAL KENTUCKY

CITY           SKY/WX    TMP DP  RH WIND       PRES   REMARKS
LOUISVILLE/SDF CLOUDY    51  48  89 S5        30.06R FOG
LOUISVILLE/LOU CLOUDY    51  48  89 S3        30.06R FOG
FORT KNOX      CLOUDY    48  48 100 S3        30.05R FOG
$$

KYZ035>037-039>044-047>052-055>060-089>105-191400-
NORTHEAST KENTUCKY

CITY           SKY/WX    TMP DP  RH WIND       PRES   REMARKS
LEXINGTON      CLOUDY    48  45  89 W5        30.07R
COVINGTON      CLOUDY    48  46  93 W8        30.04R FOG
FRANKFORT      CLOUDY    49  45  86 W3        30.05R FOG
$$

KYZ054-064>069-076>088-106>120-191400-
SOUTHEAST KENTUCKY

CITY           SKY/WX    TMP DP  RH WIND       PRES   REMARKS
JACKSON        CLOUDY    47  44  90 SW3       30.07R
LONDON         FOG       45  43  93 CALM      30.07R VSB<1/4
SOMERSET       CLOUDY    45  45 100 CALM      30.10R FOG
MIDDLESBORO    CLOUDY    46  46 100 CALM      30.08R FOG
MONTICELLO     CLOUDY    43  42  97 VRB7      30.10R FOG
$$




USA.gov is the U.S. government's official web portal to all federal, state and local government web resources and services.